Mullan Pass, ID

2:57 PM PDT on June 24, 2017 (GMT -0700)
Mullan Pass

Weather History for KMLP - March, 2014

Change the Weather History Date:

Thursday, March 20, 2014

  Actual Average (K3TH) Record (K3TH)
Temperature  
Mean Temperature 20 °F -  
Max Temperature 25 °F 48 °F 63 °F (1998)
Min Temperature 15 °F 31 °F 18 °F (2002)
Degree Days  
Heating Degree Days 46    
Moisture  
Dew Point 17 °F    
Average Humidity 91    
Maximum Humidity 100    
Minimum Humidity 79    
Precipitation  
Precipitation 0.19 in - - ()
Sea Level Pressure  
Sea Level Pressure 29.99 in    
Wind  
Wind Speed 7 mph (West)    
Max Wind Speed 16 mph    
Max Gust Speed 31 mph    
Visibility 4 miles    
Events Fog , Rain , Snow    
Averages and records for this station are not official NWS values.
T = Trace of Precipitation, MM = Missing Value Source: NWS Daily Summary

Daily Weather History Graph

Daily Weather History Graph

Search for Another Location

Airport or City:

Trip Planner

Search our weather history database for the weather conditions in past years. The results will help you decide how hot, cold, wet, or windy it might be!

Date:

Astronomy

Mar. 20, 2014 Rise Set
Actual Time 6:45 AM PDT 6:55 PM PDT
Civil Twilight 6:14 AM PDT 7:26 PM PDT
Nautical Twilight 5:38 AM PDT 8:02 PM PDT
Astronomical Twilight 5:01 AM PDT 8:39 PM PDT
Moon 11:38 PM PDT (3/20) 8:38 AM PDT (3/20)
Length of Visible Light 13h 11m
Length of Day
12h 10m
Waning Gibbous, 83% of the Moon is Illuminated
Mar 20
Waning Gibbous
Mar 23
Last Quarter
Mar 30
New
Apr 7
First Quarter
Apr 15
Full

Hourly Weather History & Observations

Time (PDT) Temp. Windchill Dew Point Humidity Pressure Visibility Wind Dir Wind Speed Gust Speed Precip Events Conditions
12:05 AM 24.8 °F 19.1 °F 24.8 °F 100% 29.79 in 2.5 mi Variable 4.6 mph 19.6 mph 0.00 in Snow Light Snow
12:07 AM 24.8 °F 16.9 °F 24.8 °F 100% 29.79 in 1.2 mi Variable 6.9 mph - 0.01 in Snow Light Snow
12:15 AM 24.8 °F 16.1 °F 23.0 °F 93% 29.80 in 0.2 mi WSW 8.1 mph - 0.01 in Fog , Snow Snow
12:36 AM 23.0 °F 12.4 °F 21.2 °F 93% 29.79 in 1.0 mi WSW 10.4 mph 27.6 mph 0.02 in Snow Light Snow
12:43 AM 23.0 °F 10.1 °F 21.2 °F 93% 29.79 in 0.5 mi WSW 15.0 mph 31.1 mph 0.02 in Fog , Snow Light Snow
12:53 AM 23.0 °F 11.1 °F 21.0 °F 92% 29.90 in 0.5 mi WNW 12.7 mph 31.1 mph 0.03 in Fog , Snow Light Snow
12:59 AM 21.2 °F 8.9 °F 19.4 °F 93% 29.80 in 1.0 mi West 12.7 mph 31.1 mph 0.00 in Snow Light Snow
1:06 AM 21.2 °F 9.5 °F 19.4 °F 93% 29.80 in 2.0 mi West 11.5 mph 27.6 mph 0.00 in Snow Light Snow
1:22 AM 21.2 °F 7.8 °F 19.4 °F 93% 29.80 in 1.2 mi WSW 15.0 mph 28.8 mph 0.00 in Snow Light Snow
1:25 AM 21.2 °F 10.9 °F 19.4 °F 93% 29.80 in 0.8 mi WSW 9.2 mph 27.6 mph 0.00 in Snow Light Snow
1:35 AM 21.2 °F 9.5 °F 19.4 °F 93% 29.80 in 1.5 mi WSW 11.5 mph 25.3 mph 0.00 in Snow Light Snow
1:38 AM 21.2 °F 7.8 °F 17.6 °F 86% 29.80 in 3.0 mi WSW 15.0 mph 29.9 mph 0.00 in Snow Light Snow
1:53 AM 19.9 °F 7.9 °F 17.1 °F 89% 29.92 in 7.0 mi West 11.5 mph 29.9 mph 0.00 in Snow Light Snow
2:05 AM 19.4 °F 9.5 °F 17.6 °F 93% 29.81 in 10.0 mi West 8.1 mph 20.7 mph 0.00 in Rain Light Freezing Rain
2:53 AM 19.0 °F 7.5 °F 15.1 °F 85% 29.95 in 10.0 mi West 10.4 mph 20.7 mph 0.00 in Rain Light Freezing Rain
3:05 AM 19.4 °F 9.5 °F 15.8 °F 86% 29.83 in 10.0 mi West 8.1 mph 20.7 mph 0.00 in   Overcast
3:19 AM 17.6 °F 5.7 °F 15.8 °F 93% 29.84 in 10.0 mi West 10.4 mph 21.9 mph 0.00 in   Overcast
3:31 AM 17.6 °F 7.3 °F 15.8 °F 93% 29.84 in 10.0 mi West 8.1 mph 19.6 mph 0.00 in   Overcast
3:53 AM 17.1 °F 5.0 °F 12.0 °F 81% 29.99 in 10.0 mi West 10.4 mph 25.3 mph 0.00 in   Mostly Cloudy
4:09 AM 17.6 °F 2.7 °F 12.2 °F 79% 29.83 in 10.0 mi WSW 16.1 mph 25.3 mph N/A   Scattered Clouds
4:36 AM 15.8 °F 4.2 °F 12.2 °F 86% 29.85 in 10.0 mi WSW 9.2 mph 18.4 mph N/A   Mostly Cloudy
4:53 AM 16.0 °F 4.4 °F 12.9 °F 88% 30.00 in 10.0 mi West 9.2 mph 18.4 mph N/A   Overcast
5:53 AM 16.0 °F 6.3 °F 12.9 °F 88% 30.01 in 5.0 mi Variable 6.9 mph - 0.00 in Snow Light Snow
6:05 AM 15.8 °F 5.1 °F 12.2 °F 86% 29.86 in 2.0 mi West 8.1 mph 17.3 mph 0.00 in Snow Light Snow
6:13 AM 15.8 °F 3.4 °F 12.2 °F 86% 29.86 in 1.8 mi WSW 10.4 mph 17.3 mph 0.00 in Snow Light Snow
6:21 AM 15.8 °F 2.1 °F 12.2 °F 86% 29.86 in 3.0 mi WSW 12.7 mph 20.7 mph 0.00 in Snow Light Snow
6:50 AM 15.8 °F 6.1 °F 12.2 °F 86% 29.88 in 2.5 mi Variable 6.9 mph 19.6 mph 0.00 in Snow Light Snow
6:53 AM 15.1 °F 6.4 °F 12.9 °F 91% 30.04 in 3.0 mi Variable 5.8 mph - 0.00 in Snow Light Snow
6:59 AM 15.8 °F 6.1 °F 12.2 °F 86% 29.88 in 3.0 mi Variable 6.9 mph - 0.00 in Snow Light Snow
7:09 AM 15.8 °F 6.1 °F 12.2 °F 86% 29.88 in 1.8 mi Variable 6.9 mph - 0.00 in Snow Light Snow
7:20 AM 15.8 °F 6.1 °F 12.2 °F 86% 29.88 in 1.0 mi Variable 6.9 mph - 0.00 in Snow Light Snow
7:32 AM 15.8 °F 10.2 °F 14.0 °F 93% 29.89 in 2.0 mi Variable 3.5 mph - 0.00 in Snow Light Snow
7:41 AM 15.8 °F 7.2 °F 14.0 °F 93% 29.90 in 8.0 mi Variable 5.8 mph - 0.00 in   Overcast
7:53 AM 16.0 °F 6.3 °F 14.0 °F 92% 30.05 in 9.0 mi Variable 6.9 mph - 0.00 in   Overcast
8:06 AM 15.8 °F 6.1 °F 14.0 °F 93% 29.91 in 1.8 mi Variable 6.9 mph - 0.00 in Snow Light Snow
8:25 AM 17.6 °F 10.7 °F 15.8 °F 93% 29.91 in 3.0 mi Variable 4.6 mph - 0.00 in Snow Light Snow
8:53 AM 17.1 °F 6.6 °F 15.1 °F 92% 30.08 in 5.0 mi West 8.1 mph - 0.00 in   Overcast
9:13 AM 17.6 °F 9.3 °F 15.8 °F 93% 29.93 in 1.8 mi Variable 5.8 mph - 0.00 in Snow Light Snow
9:17 AM 17.6 °F 8.2 °F 15.8 °F 93% 29.93 in 0.8 mi Variable 6.9 mph - 0.00 in Snow Light Snow
9:34 AM 17.6 °F - 15.8 °F 93% 29.94 in 1.2 mi Calm Calm - 0.00 in Snow Light Snow
9:48 AM 17.6 °F - 15.8 °F 93% 29.95 in 0.5 mi Calm Calm - 0.00 in Fog , Snow Light Snow
9:53 AM 18.0 °F 12.7 °F 16.0 °F 92% 30.09 in 0.2 mi Variable 3.5 mph - 0.00 in Fog , Snow Light Snow
10:01 AM 17.6 °F 10.7 °F 15.8 °F 93% 29.95 in 0.5 mi Variable 4.6 mph - 0.00 in Fog , Snow Light Snow
10:17 AM 17.6 °F 10.7 °F 15.8 °F 93% 29.96 in 1.2 mi Variable 4.6 mph - 0.00 in Snow Light Snow
10:38 AM 17.6 °F 12.3 °F 15.8 °F 93% 29.96 in 1.5 mi Variable 3.5 mph - 0.00 in Snow Light Snow
10:43 AM 17.6 °F - 17.6 °F 100% 29.96 in 2.0 mi Calm Calm - 0.00 in Snow Light Snow
10:50 AM 19.4 °F - 15.8 °F 86% 29.97 in 1.5 mi Calm Calm - 0.00 in Snow Light Snow
10:53 AM 19.0 °F 12.3 °F 17.1 °F 92% 30.11 in 1.5 mi Variable 4.6 mph - 0.00 in Snow Light Snow
11:12 AM 17.6 °F 12.3 °F 15.8 °F 93% 29.98 in 2.5 mi Variable 3.5 mph - 0.00 in Snow Light Snow
11:27 AM 19.4 °F - 15.8 °F 86% 29.98 in 3.0 mi Calm Calm - 0.00 in Snow Light Snow
11:29 AM 19.4 °F 12.8 °F 15.8 °F 86% 29.98 in 2.5 mi Variable 4.6 mph - 0.00 in Snow Light Snow
11:39 AM 19.4 °F - 17.6 °F 93% 29.98 in 2.0 mi Calm Calm - 0.00 in Snow Light Snow
11:46 AM 19.4 °F - 17.6 °F 93% 29.99 in 4.0 mi Calm Calm - 0.00 in Snow Light Snow
11:53 AM 19.0 °F - 17.1 °F 92% 30.14 in 8.0 mi Calm Calm - 0.00 in Snow Light Snow
12:00 PM 19.4 °F - 15.8 °F 86% 29.99 in 9.0 mi Calm Calm - N/A   Overcast
12:34 PM 19.4 °F 14.3 °F 15.8 °F 86% 30.00 in 6.0 mi Variable 3.5 mph - 0.00 in Snow Light Snow
12:53 PM 19.9 °F - 17.1 °F 89% 30.15 in 5.0 mi Calm Calm - 0.00 in Snow Light Snow
1:28 PM 21.2 °F 13.6 °F 17.6 °F 86% 30.00 in 1.2 mi Variable 5.8 mph - 0.00 in Snow Light Snow
1:35 PM 21.2 °F 14.9 °F 17.6 °F 86% 30.00 in 0.5 mi WNW 4.6 mph - 0.00 in Fog , Snow Light Snow
1:53 PM 19.9 °F 12.1 °F 18.0 °F 92% 30.17 in 0.2 mi Variable 5.8 mph - 0.01 in Fog , Snow Snow
2:30 PM 21.2 °F 12.6 °F 19.4 °F 93% 30.00 in 0.8 mi Variable 6.9 mph - 0.03 in Snow Light Snow
2:35 PM 23.0 °F 15.8 °F 21.2 °F 93% 30.00 in 1.5 mi Variable 5.8 mph - 0.03 in Snow Light Snow
2:40 PM 21.2 °F 14.9 °F 19.4 °F 93% 30.00 in 3.0 mi Variable 4.6 mph - 0.03 in   Overcast
2:46 PM 21.2 °F 14.9 °F 19.4 °F 93% 30.01 in 1.5 mi Variable 4.6 mph - 0.03 in Snow Light Snow
2:49 PM 21.2 °F - 17.6 °F 86% 30.01 in 0.8 mi Calm Calm - 0.03 in Snow Light Snow
2:53 PM 19.9 °F 10.1 °F 18.0 °F 92% 30.18 in 0.2 mi West 8.1 mph - 0.04 in Fog , Snow Snow
3:00 PM 19.4 °F 11.5 °F 17.6 °F 93% 30.01 in 0.2 mi Variable 5.8 mph - 0.01 in Fog , Snow Heavy Snow
3:07 PM 21.2 °F 13.6 °F 17.6 °F 86% 30.01 in 0.2 mi Variable 5.8 mph - 0.01 in Fog , Snow Light Snow
3:10 PM 21.2 °F - 19.4 °F 93% 30.01 in 1.2 mi Calm Calm - 0.01 in Snow Light Snow
3:12 PM 21.2 °F 12.6 °F 19.4 °F 93% 30.01 in 3.0 mi NW 6.9 mph - 0.01 in Snow Light Snow
3:30 PM 21.2 °F 14.9 °F 19.4 °F 93% 30.01 in 10.0 mi Variable 4.6 mph - 0.01 in   Overcast
3:53 PM 24.1 °F 18.2 °F 19.9 °F 84% 30.18 in 10.0 mi Variable 4.6 mph - 0.01 in   Overcast
4:53 PM 21.9 °F 15.7 °F 18.0 °F 85% 30.21 in 6.0 mi Variable 4.6 mph - 0.00 in Snow Light Snow
5:01 PM 21.2 °F 14.9 °F 17.6 °F 86% 30.02 in 8.0 mi Variable 4.6 mph - 0.00 in Snow Light Snow
5:53 PM 21.0 °F 11.4 °F 17.1 °F 85% 30.22 in 10.0 mi WSW 8.1 mph - 0.00 in   Overcast
6:00 PM 19.4 °F 10.4 °F 17.6 °F 93% 30.03 in 10.0 mi WSW 6.9 mph - N/A   Overcast
6:18 PM 19.4 °F 12.8 °F 15.8 °F 86% 30.03 in 10.0 mi Variable 4.6 mph - N/A   Overcast
6:53 PM 19.0 °F 11.1 °F 15.1 °F 85% 30.24 in 10.0 mi Variable 5.8 mph - N/A   Overcast
7:11 PM 19.4 °F 11.5 °F 15.8 °F 86% 30.04 in 5.0 mi Variable 5.8 mph - 0.00 in Snow Light Snow
7:15 PM 19.4 °F 14.3 °F 15.8 °F 86% 30.04 in 2.0 mi Variable 3.5 mph - 0.00 in Snow Light Snow
7:17 PM 19.4 °F 14.3 °F 15.8 °F 86% 30.04 in 1.2 mi Variable 3.5 mph - 0.00 in Snow Light Snow
7:21 PM 19.4 °F 9.5 °F 17.6 °F 93% 30.04 in 0.2 mi NW 8.1 mph - 0.02 in Fog , Snow Heavy Snow
7:25 PM 19.4 °F 12.8 °F 17.6 °F 93% 30.04 in 0.2 mi North 4.6 mph - 0.04 in Fog , Snow Heavy Snow
7:53 PM 19.0 °F 11.1 °F 18.0 °F 96% 30.25 in 0.2 mi NNW 5.8 mph - 0.09 in Fog , Snow Snow
8:02 PM 19.4 °F 10.4 °F 17.6 °F 93% 30.05 in 0.8 mi Variable 6.9 mph - 0.01 in Snow Light Snow
8:11 PM 19.4 °F 10.4 °F 17.6 °F 93% 30.05 in 1.2 mi NNW 6.9 mph - 0.01 in   Overcast
8:16 PM 17.6 °F 8.2 °F 17.6 °F 100% 30.05 in 2.0 mi NW 6.9 mph - 0.01 in   Overcast
8:38 PM 19.4 °F 14.3 °F 17.6 °F 93% 30.06 in 1.8 mi Variable 3.5 mph - 0.01 in Snow Light Snow
8:53 PM 18.0 °F 12.7 °F 16.0 °F 92% 30.25 in 3.0 mi Variable 3.5 mph - 0.01 in   Overcast
8:56 PM 17.6 °F 12.3 °F 15.8 °F 93% 30.06 in 4.0 mi NNW 3.5 mph - N/A   Overcast
9:19 PM 17.6 °F - 15.8 °F 93% 30.06 in 10.0 mi Calm Calm - N/A   Overcast
9:45 PM 17.6 °F 10.7 °F 15.8 °F 93% 30.06 in 10.0 mi NW 4.6 mph - N/A   Overcast
9:53 PM 18.0 °F 11.1 °F 16.0 °F 92% 30.26 in 10.0 mi WNW 4.6 mph - N/A   Overcast
10:53 PM 17.1 °F 11.7 °F 15.1 °F 92% 30.27 in 10.0 mi WNW 3.5 mph - N/A   Overcast
11:35 PM 17.6 °F - 15.8 °F 93% 30.08 in 4.0 mi Calm Calm - N/A   Overcast
11:53 PM 17.1 °F - 16.0 °F 96% 30.27 in 10.0 mi Calm Calm - N/A   Overcast